Probability
0 0 0 0 0 0 0 0 0 0 3 11 22 30 32 36 39 37 37 43 51 57 59 59 59 58 59 58 57 56 54 51 48 44 39 34 32 29 27 28 26 24 22 22
0 0 0 0 0 0 0 0 0 1 6 15 25 32 36 40 43 41 39 43 51 57 59 58 58 58 59 58 59 59 55 49 45 40 36 32 30 29 28 28 26 23 21 20
0 0 0 0 0 0 0 0 0 3 11 22 30 34 38 44 47 46 43 45 51 58 59 58 59 61 60 60 61 60 53 45 39 36 33 30 29 29 28 27 23 20 18 18
0 0 0 0 0 0 0 0 1 7 15 25 31 34 36 42 47 48 47 49 54 59 60 60 62 63 62 61 61 56 48 40 35 34 33 30 28 28 26 23 19 17 16 15
0 0 0 1 1 0 0 2 5 10 17 23 28 32 35 42 50 54 55 56 58 59 61 65 67 65 62 60 58 52 43 37 33 32 31 29 26 25 23 20 17 15 13 12
0 0 1 3 3 1 2 6 11 16 21 24 25 30 39 49 58 64 66 64 61 62 66 70 69 67 63 58 53 47 40 35 32 31 29 26 22 20 19 17 14 13 11 10
0 1 3 5 6 8 15 22 23 24 26 27 28 33 46 57 64 70 72 68 65 67 70 70 68 65 61 55 50 45 40 35 32 30 26 21 18 16 16 15 13 11 10 10
3 6 11 15 19 28 40 43 37 32 31 30 32 40 52 62 66 69 70 69 68 69 70 68 65 63 60 55 50 47 41 36 32 28 23 18 14 13 13 12 10 9 9 9
13 18 25 32 40 49 55 52 44 37 34 32 34 42 54 64 69 70 68 67 66 66 67 67 66 64 61 56 51 47 42 36 31 27 23 18 13 11 11 9 8 7 8 9
26 29 32 38 45 49 49 46 41 38 35 34 34 42 54 65 72 72 66 62 61 62 63 66 67 66 61 55 49 46 42 35 30 26 22 17 12 10 9 7 7 7 7 8
39 36 31 31 34 35 36 37 36 34 35 35 37 45 55 63 68 67 62 58 58 58 60 63 64 64 60 53 49 46 40 33 27 22 17 12 8 6 6 6 6 6 7 7
41 39 33 29 26 24 27 30 30 32 34 36 41 47 52 56 57 56 54 54 56 57 58 60 61 61 60 54 49 45 38 30 22 16 12 9 6 5 5 4 3 4 5 6
37 37 37 31 25 23 25 28 30 32 35 38 43 47 48 47 46 45 45 48 51 54 55 56 57 58 57 52 46 40 34 25 17 13 10 8 7 7 6 5 3 3 3 3
29 31 32 29 26 26 26 28 31 34 37 39 42 44 43 42 41 40 40 43 47 50 52 50 49 50 50 45 40 33 26 20 15 13 11 10 9 8 8 7 5 4 2 2
21 21 20 22 24 26 27 27 30 33 36 37 37 38 38 39 40 39 39 41 44 47 46 43 42 43 43 39 35 31 23 17 14 14 12 12 10 8 7 7 7 5 3 2
17 16 15 16 21 25 26 25 26 28 32 35 36 34 35 38 41 40 39 39 39 40 39 37 36 36 37 35 33 30 22 15 13 13 12 12 10 8 7 6 6 4 3 2
16 16 17 18 20 23 23 22 22 24 29 34 36 36 36 38 41 41 39 36 34 32 31 31 31 32 33 31 29 26 20 14 11 10 11 10 9 8 7 6 5 3 2 2
12 15 19 20 19 19 20 19 20 24 31 34 34 34 34 35 37 36 34 32 31 30 28 27 27 29 30 27 25 22 19 15 11 9 8 8 7 6 6 5 4 3 2 1
11 14 17 18 16 17 20 21 22 27 32 33 31 29 29 30 31 30 29 29 29 30 29 26 22 23 24 22 20 20 18 15 12 9 8 6 5 4 4 4 4 4 2 2
11 11 12 13 14 17 22 24 25 28 31 33 32 30 29 29 28 29 29 28 28 28 26 22 19 18 17 15 15 15 14 12 11 9 7 5 4 3 3 3 3 3 1 1
10 10 10 11 13 18 22 25 26 27 30 33 35 35 34 31 29 30 30 28 25 22 18 16 16 16 13 11 9 10 10 10 10 9 7 4 3 3 3 3 2 1 0 0
13 14 15 15 16 19 22 26 25 25 29 33 36 37 36 30 26 26 25 21 16 13 12 12 13 12 10 8 8 8 9 10 9 8 6 4 3 3 3 2 1 0 0 0
16 19 21 21 20 21 23 25 24 24 29 33 35 34 30 23 16 15 14 10 7 7 10 10 9 8 7 7 8 9 9 9 9 8 7 6 4 3 2 1 0 0 0 1
18 20 22 23 21 21 22 23 22 23 27 30 30 27 21 13 7 6 6 4 2 4 7 7 6 5 6 8 9 10 10 9 8 7 7 6 4 2 1 0 0 0 1 2
16 17 18 18 17 16 17 18 19 20 23 24 22 18 13 7 5 5 5 2 1 2 4 4 3 3 5 8 10 10 10 9 8 7 7 6 4 1 0 0 0 1 3 3
13 14 15 14 12 12 12 12 13 15 17 18 15 12 9 7 6 7 5 2 0 1 1 2 3 4 6 9 9 9 9 9 8 8 7 7 5 2 1 1 1 2 3 4
12 13 14 13 11 9 9 8 8 10 13 14 13 10 8 7 7 7 4 1 0 0 0 1 4 5 7 8 9 8 8 8 8 9 8 8 6 4 4 4 3 3 3 3
Wind_Speed
15 12 14 16 17 17 16 14 12 10 10 9 8 8 8 9 9 8 7 8 9 9 8 8 7 6 6 6 6 6 6 5 5 4 3 3 3 3 3 3 3 3 3 3
15 15 13 13 16 17 17 15 14 12 7 6 8 8 8 9 9 8 8 8 9 9 9 8 8 7 7 6 6 6 6 5 5 5 4 4 4 4 4 4 4 4 4 4
13 15 14 15 14 15 15 14 13 12 6 5 7 7 8 8 9 8 8 8 8 9 8 8 8 7 7 7 6 6 6 5 5 5 5 4 4 5 5 5 5 5 5 5
11 12 16 11 11 13 13 12 11 7 5 5 6 6 7 8 8 8 8 8 8 8 9 8 8 8 8 7 7 6 6 5 5 5 5 5 5 5 4 4 4 4 5 5
10 13 13 11 10 11 12 10 9 6 5 5 5 5 5 6 8 8 7 7 7 7 9 9 9 8 8 7 7 7 6 5 5 5 5 5 5 4 4 4 5 5 4 5
10 12 12 10 9 8 8 9 7 6 5 6 6 5 4 5 6 8 8 7 7 7 9 9 8 8 8 8 7 6 6 6 6 5 5 5 5 4 4 4 5 5 5 5
13 11 7 4 6 9 11 5 4 6 6 6 4 2 5 7 7 7 8 8 7 7 7 7 8 8 7 7 7 7 7 6 6 6 5 6 5 4 4 4 5 5 5 5
12 12 7 3 5 5 1 3 3 3 4 5 5 7 8 7 7 8 8 8 8 7 7 7 7 7 7 7 7 8 8 7 7 6 5 5 4 3 4 5 5 5 5 4
5 3 3 5 6 5 4 5 4 3 4 6 6 6 7 6 6 7 7 7 7 7 7 7 7 7 8 7 8 8 8 7 7 6 5 5 4 4 3 3 4 4 4 4
5 5 3 4 6 5 3 3 4 3 3 4 6 7 6 5 5 6 6 6 6 7 7 7 7 7 7 8 9 9 8 7 6 6 6 5 3 3 3 2 2 3 4 4
4 5 4 3 3 4 3 3 3 3 2 3 4 6 6 5 5 5 5 5 5 5 6 7 7 7 8 9 9 9 8 7 7 6 6 5 4 4 3 4 2 2 3 3
3 3 3 4 3 3 3 2 2 3 3 4 4 5 5 5 5 5 5 5 5 5 6 7 8 8 8 8 8 8 7 6 6 6 5 5 6 6 9 7 8 9 7 5
2 1 2 4 3 3 3 3 3 3 2 3 4 5 5 5 4 5 5 5 6 5 6 7 7 8 8 7 7 7 6 6 5 5 6 6 6 6 5 5 7 8 7 7
3 3 2 2 3 4 3 3 3 3 3 3 4 5 5 5 4 4 5 5 5 6 6 7 7 7 8 7 7 7 6 6 5 5 6 6 6 6 6 6 5 4 3 4
0 2 2 2 2 2 2 3 3 3 4 3 4 4 5 5 4 4 4 4 5 6 6 6 6 6 7 7 7 7 6 5 4 5 5 5 6 6 6 6 6 6 5 4
2 2 2 3 2 2 3 3 3 3 4 3 4 3 4 4 4 4 4 5 5 5 5 5 6 6 6 7 7 5 4 5 4 4 5 5 5 5 5 5 6 6 6 6
3 4 3 2 2 1 2 1 1 1 2 3 4 4 4 4 4 4 4 5 5 5 5 5 5 5 5 6 6 5 5 5 5 5 4 5 4 4 4 4 4 5 5 6
4 4 3 2 2 1 1 1 1 2 2 3 4 4 4 4 4 4 4 4 4 4 5 5 5 5 5 5 4 4 5 5 5 4 4 4 4 3 4 4 4 5 5 6
3 4 3 2 2 2 2 1 1 2 3 3 4 3 3 4 4 4 4 4 4 4 3 4 5 5 5 4 4 4 5 6 5 4 3 4 4 3 3 3 4 4 4 5
3 2 2 2 2 2 2 1 1 1 2 3 4 4 3 4 4 4 4 3 2 2 4 4 5 4 5 4 3 4 5 5 5 5 4 4 4 4 4 4 4 4 4 4
2 2 2 2 2 1 1 1 1 2 2 3 3 4 4 4 4 4 3 3 3 4 4 5 3 3 3 3 4 3 4 4 4 4 4 3 3 3 3 3 3 3 3 3
1 1 2 2 2 1 1 1 2 2 3 3 3 4 4 4 4 4 3 2 3 4 4 3 3 2 2 3 4 4 3 3 3 3 3 3 3 3 3 2 2 2 2 2
1 1 2 1 1 1 1 1 2 2 3 3 3 4 3 3 2 3 2 2 4 5 3 3 3 4 3 3 3 4 4 4 3 3 3 3 3 3 3 3 2 2 2 2
0 1 1 1 0 2 2 2 1 1 2 2 3 4 3 2 2 2 3 4 5 5 3 4 6 4 3 3 3 3 3 3 3 3 3 3 3 2 2 2 2 2 2 3
1 1 1 1 2 2 2 3 3 2 2 2 3 3 2 2 2 2 4 5 7 6 5 5 5 4 3 3 3 3 3 2 3 3 3 2 2 2 2 2 2 2 2 2
1 1 1 1 1 1 2 2 2 2 2 2 2 2 2 2 3 4 4 5 6 5 5 5 5 4 3 3 3 3 3 3 3 3 3 3 2 1 1 1 1 1 1 1
2 1 1 1 2 2 2 1 2 2 3 3 2 2 2 2 3 4 4 4 5 5 4 4 4 4 3 3 4 4 3 3 2 2 2 2 2 2 1 1 1 1 1 1
Wind_Direction
259 256 224 211 218 224 229 235 241 238 215 187 168 149 148 145 144 139 131 131 127 127 127 126 129 130 130 130 130 131 131 130 131 128 117 109 106 106 104 96 90 73 62 53
247 254 246 228 219 220 225 229 239 249 243 170 159 143 149 148 149 145 144 146 137 135 133 138 143 141 135 132 133 133 134 134 133 131 124 114 110 106 98 91 81 71 66 61
239 239 247 235 225 224 225 227 233 240 210 162 148 154 152 151 156 154 150 144 142 142 142 143 144 139 138 137 134 134 133 133 133 133 128 123 118 107 98 91 88 79 73 69
241 234 237 237 227 230 232 233 232 235 179 171 168 158 152 158 154 152 152 150 147 147 144 145 144 141 140 141 140 139 136 132 128 125 120 115 111 105 103 101 95 86 77 73
239 232 232 229 228 225 225 230 230 221 185 166 159 159 156 162 147 141 147 144 145 147 144 143 143 143 142 143 143 141 138 133 126 122 122 121 117 113 109 107 101 96 89 80
237 239 230 221 214 225 225 227 218 206 177 168 184 197 173 141 128 137 137 140 142 143 138 139 142 144 145 146 142 140 135 130 125 122 124 121 117 114 113 112 110 106 93 83
237 237 240 232 199 204 220 208 193 192 176 176 189 176 124 124 129 131 132 137 137 135 134 139 142 146 149 146 144 138 130 123 122 121 120 118 116 116 124 125 117 110 106 93
231 233 224 198 202 205 124 75 101 133 156 152 129 123 122 123 128 134 138 139 138 137 137 140 145 150 149 146 138 132 129 127 125 125 127 123 123 125 136 135 129 123 115 106
219 219 45 57 78 77 73 87 91 120 133 138 138 136 129 126 132 137 137 139 141 142 143 148 151 154 151 139 135 136 134 131 130 128 118 121 126 127 130 140 137 136 137 130
177 169 141 93 98 89 84 98 91 87 110 141 144 143 136 134 131 134 139 142 142 147 153 150 150 151 144 139 140 140 139 138 135 131 129 124 122 123 118 120 138 143 141 132
175 153 146 136 118 115 107 98 98 93 116 115 134 144 139 131 129 135 139 142 143 146 150 148 147 144 142 143 145 145 144 144 141 136 129 113 93 61 75 60 64 111 111 120
184 151 167 140 124 132 134 129 117 114 120 129 127 132 138 132 129 136 140 142 144 148 151 145 144 141 141 145 149 150 151 154 153 148 144 142 130 100 57 73 77 80 85 97
111 106 118 132 162 155 131 117 106 98 109 114 119 124 125 127 132 139 144 147 147 151 146 142 143 144 146 148 152 154 155 158 158 158 158 160 151 144 129 90 70 70 81 98
50 91 106 138 134 111 115 121 117 112 100 98 109 115 120 126 134 142 147 149 148 144 139 140 145 149 151 154 157 162 166 164 169 169 169 166 163 162 157 153 145 124 96 112
125 165 182 166 125 124 154 157 151 127 101 97 108 122 130 135 140 142 141 143 135 136 140 144 147 149 153 160 166 174 175 171 174 167 168 166 165 168 164 162 157 149 144 137
318 273 207 177 167 178 192 183 176 151 142 135 117 112 122 129 141 146 146 143 139 142 143 146 148 152 160 168 171 172 164 163 171 174 174 173 174 175 170 166 163 160 161 155
247 243 222 197 196 206 205 174 157 141 132 126 123 119 117 119 115 119 126 130 130 135 140 144 151 157 165 170 174 172 167 164 179 189 181 173 169 170 169 169 163 156 152 151
243 253 252 231 213 225 242 215 169 124 100 105 109 113 120 125 125 119 120 118 123 133 144 151 155 160 165 170 173 167 165 169 180 181 170 161 162 172 170 163 158 153 149 153
245 231 221 227 221 224 246 252 210 137 123 131 129 137 139 130 130 132 128 136 143 145 143 139 154 169 167 159 168 172 173 173 175 171 165 152 173 176 160 152 150 152 156 158
247 240 208 215 222 227 237 236 214 134 135 140 141 142 141 136 140 149 149 148 152 137 133 138 159 166 166 159 188 184 176 175 172 166 169 173 171 165 162 161 167 170 170 167
252 243 210 202 200 223 244 203 145 147 141 145 152 156 152 154 159 158 157 156 131 124 138 149 166 166 160 164 197 185 173 170 164 159 164 167 164 161 161 160 164 165 167 161
288 273 237 210 188 186 211 163 166 170 158 163 168 159 154 152 154 153 156 163 148 142 159 159 157 140 147 182 182 171 165 159 158 155 156 157 158 158 157 156 156 155 153 154
311 306 296 235 160 180 181 163 175 174 165 162 153 152 156 149 161 164 162 153 146 147 153 133 125 125 156 194 174 160 156 154 154 159 165 162 159 153 151 159 160 162 159 165
320 317 315 336 180 194 174 157 165 160 141 142 147 147 151 159 163 160 139 129 126 138 135 119 130 139 178 188 165 151 150 153 158 163 157 147 146 150 158 165 167 168 171 179
272 262 230 203 208 202 175 162 151 145 142 131 137 141 154 156 157 143 133 134 140 143 135 137 155 176 197 183 162 145 140 144 145 143 147 152 161 160 156 155 157 161 156 158
244 241 236 229 200 204 209 182 165 151 142 127 115 120 123 131 135 133 138 150 150 153 152 152 161 181 180 153 140 135 135 141 146 152 149 143 143 143 139 153 153 129 127 131
236 222 216 225 223 220 205 183 154 140 134 132 132 136 133 137 139 139 138 145 156 162 158 159 151 145 146 142 137 136 138 137 132 135 141 140 139 136 131 135 117 102 85 96